Weather History for KFRI - February, 2014

Change the Weather History Date:

Sunday, February 16, 2014

  Actual Average (KMHK) Record (KMHK)
Temperature  
Mean Temperature 34 °F 33 °F  
Max Temperature 45 °F 45 °F 69 °F (2011)
Min Temperature 22 °F 21 °F -2 °F (2007)
Degree Days  
Heating Degree Days 32 32  
Month to date heating degree days 536  
Since 1 July heating degree days 3802  
Cooling Degree Days 0 0  
Month to date cooling degree days 0  
Year to date cooling degree days 0  
Moisture  
Dew Point 30 °F    
Average Humidity 86    
Maximum Humidity 100    
Minimum Humidity 61    
Precipitation  
Precipitation 0.00 in 0.04 in 0.31 in (2008)
Month to date precipitation 0.57  
Year to date precipitation 1.22  
Sea Level Pressure  
Sea Level Pressure 30.04 in    
Wind  
Wind Speed 5 mph (ENE)    
Max Wind Speed 14 mph    
Max Gust Speed -    
Visibility 10 miles    
Events      
T = Trace of Precipitation, MM = Missing Value Source: NWS Daily Summary

Daily Weather History Graph

Daily Weather History Graph

Search for Another Location

Airport or City:

Trip Planner

Search our weather history database for the weather conditions in past years. The results will help you decide how hot, cold, wet, or windy it might be!

Date:

Astronomy

Feb. 16, 2014 Rise Set
Actual Time 7:17 AM CST 6:05 PM CST
Civil Twilight 6:49 AM CST 6:32 PM CST
Nautical Twilight 6:18 AM CST 7:04 PM CST
Astronomical Twilight 5:47 AM CST 7:35 PM CST
Moon 8:02 PM CST (2/16) 7:48 AM CST (2/16)
Length of Visible Light 11h 42m
Length of Day
10h 48m
Full, 97% of the Moon is Illuminated
Feb 16
Full
Feb 22
Last Quarter
Mar 1
New
Mar 8
First Quarter
Mar 16
Full

Hourly Weather History & Observations

Time (CST) Temp. Windchill Dew Point Humidity Pressure Visibility Wind Dir Wind Speed Gust Speed Precip Events Conditions
12:58 AM 28.8 °F - 25.9 °F 89% 30.12 in 10.0 mi NNE 2.3 mph - N/A   Clear
1:58 AM 27.3 °F - 26.1 °F 95% 30.12 in 10.0 mi ENE 2.3 mph - N/A   Clear
2:58 AM 25.2 °F - 24.3 °F 96% 30.13 in 10.0 mi WNW 2.3 mph - N/A   Clear
3:58 AM 23.9 °F - 23.7 °F 99% 30.13 in 10.0 mi North 2.3 mph - N/A   Clear
4:58 AM 24.4 °F - 24.3 °F 99% 30.13 in 10.0 mi Calm Calm - N/A   Clear
5:58 AM 23.2 °F - 22.8 °F 99% 30.14 in 10.0 mi Calm Calm - N/A   Clear
6:58 AM 24.3 °F 19.9 °F 24.1 °F 99% 30.14 in 10.0 mi NNE 3.5 mph - N/A   Clear
7:58 AM 22.8 °F 16.7 °F 22.8 °F 100% 30.17 in 10.0 mi NE 4.6 mph - N/A   Clear
8:58 AM 27.5 °F 21.1 °F 27.1 °F 99% 30.15 in 10.0 mi NNE 5.8 mph - N/A   Clear
9:58 AM 34.0 °F 29.8 °F 31.5 °F 90% 30.13 in 10.0 mi East 4.6 mph - N/A   Scattered Clouds
10:58 AM 35.6 °F 29.2 °F 31.8 °F 86% 30.15 in 10.0 mi East 8.1 mph - N/A   Mostly Cloudy
11:58 AM 37.4 °F 32.8 °F 32.0 °F 81% 30.12 in 10.0 mi ESE 5.8 mph - N/A   Scattered Clouds
12:58 PM 39.6 °F 34.7 °F 32.0 °F 74% 30.09 in 10.0 mi ESE 6.9 mph - N/A   Partly Cloudy
1:58 PM 42.8 °F 37.5 °F 33.4 °F 70% 30.04 in 10.0 mi SE 9.2 mph - N/A   Scattered Clouds
2:58 PM 45.1 °F 39.1 °F 32.5 °F 61% 30.00 in 10.0 mi ESE 12.7 mph - N/A   Scattered Clouds
3:58 PM 45.1 °F 39.5 °F 32.4 °F 61% 29.97 in 10.0 mi SE 11.5 mph - N/A   Clear
4:58 PM 42.8 °F 35.8 °F 32.4 °F 67% 29.96 in 10.0 mi SE 13.8 mph - N/A   Clear
5:58 PM 40.8 °F 35.6 °F 33.6 °F 76% 29.94 in 10.0 mi East 8.1 mph - N/A   Clear
6:58 PM 38.8 °F 34.6 °F 33.6 °F 82% 29.95 in 10.0 mi East 5.8 mph - N/A   Partly Cloudy
7:58 PM 37.4 °F 33.8 °F 32.5 °F 83% 29.95 in 10.0 mi NE 4.6 mph - N/A   Clear
8:58 PM 36.9 °F 30.7 °F 32.7 °F 85% 29.89 in 10.0 mi East 8.1 mph - N/A   Clear
9:58 PM 36.1 °F 29.3 °F 32.9 °F 88% 29.86 in 10.0 mi East 9.2 mph - N/A   Clear
10:58 PM 35.4 °F 27.8 °F 32.4 °F 89% 29.84 in 10.0 mi East 10.4 mph - N/A   Scattered Clouds
11:58 PM 34.9 °F 29.0 °F 31.8 °F 89% 29.80 in 10.0 mi NE 6.9 mph - N/A   Clear